PSLV R/B

Satellite information

Favourite Embed

Satellite Type and Status

ROCKET BODYIN ORBIT

Key statistics

Satellite PSLV R/B at a glance.

Uptime

4078

Days in orbit

Revolutions

≈ 4.4

Per day

Orbit

MEO

Medium Earth Orbit

Inclination

17.8

Latest

Satellite identification and parameters

Extended collection of information and parameters for PSLV R/B.

Object identification

Identified? True

Debris? False

Object name: PSLV R/B

International designator: 2014-061B

Object number (NORAD): 40270

Object ID (CCSDS): 40270

Country: INDIA (IND)

Current information (Y/N): Y

RCS size: LARGE

Orbital parameters

Period: 325.196 minutes

Inclination: 17.7722 deg

SMA: 15664.758 km

Apoapsis: 18291.941 km

Periapsis: 281.304 km

RAAN: 102.6235 deg

Eccentricy: 0.5748776

Argument of periapsis: 24.1028 deg

Mean anomaly: 354.4938 deg

Mean motion: 4.42809811 rev/day

Mean motion (dot): 0.00007713 rev/day2

B* drag term: 0.0013073058 1/REarth

Two-line elements (TLE)

Creation date: Dec. 13, 2025, 5:47 p.m.

Reference frame: TEME

Reference center: EARTH

Epoch: Dec. 13, 2025, 2:25 a.m. UTC

TLE line 0: 0 PSLV R/B

TLE line 1: 1 40270U 14061B 25347.10080186 .00007713 00000-0 13073-2 0 9994

TLE line 2: 2 40270 17.7722 102.6235 5748776 24.1028 354.4938 4.42809811168706

Live tracking on map

Real-time ground track for satellite PSLV R/B.

In-orbit conjunctions

There are no conjunctions computed for PSLV R/B, at the moment. Check back to stay up to date, as we update our databases every day.

Go to all conjunctions

Associated space launch

PSLV R/B was lifted into orbit during the mission ‘PSLV XL | IRNSS-1C’, on board a PSLV-XL space rocket.

The launch took place on Oct. 15, 2014, 8:02 p.m. from Satish Dhawan Space Centre First Launch Pad.

For more information about the launch, click the button.

Launch to space PSLV XL | IRNSS-1C
PSLV XL | IRNSS-1C

Agency: N/A

Status: Launch Successful

Launch date: Oct. 15, 2014, 8:02 p.m. UTC

Rocket: PSLV-XL

Launch pad: Satish Dhawan Space Centre First Launch Pad

Location: Satish Dhawan Space Centre, India

...

Latest news about this satellite

There are no fresh news available about this satellite. Check back as we update our databases every day.


Newsletter sign-up

Weekly statistics, charts and insights to help you stay on top of the space industry.